Date String (YYYY-MM-DD hh:mm:ss) UTC,Instrument flags,Ambient pressure (hPa),Sample flow (lpm),Bypass flow (lpm),Sample temperature (°C),Ambient temperature (°C),ASC tube jacket temperature (°C),LED temperature (°C),Box temperature (°C),Sample RH (%),Span deviation,Mass concentration (μg/m³),Mass concentration (μg/m³),Mass concentration (μg/m³)
DateTimeUTC,F1_M11,P_M11,Q1_M11,Q2_M11,T1_M11,T2_M11,T3_M11,T4_M11,T5_M11,U1_M11,ZSPAN_M11,X0_M11,X2_M11,X1_M11
2021-10-19 21:00:00,,0821.8,4.99,0.00,30.0,29.3,00.0,39.1,31.7,12.6,0000.0,0008.51,0002.62,0001.51
2021-10-19 21:01:00,,0822.0,4.99,0.00,30.0,29.3,00.0,39.1,31.7,12.6,0000.0,0008.93,0002.67,0001.52
2021-10-19 21:02:00,,0822.0,5.01,0.00,30.0,29.3,00.0,39.1,31.7,12.5,0000.0,0009.59,0002.71,0001.52
2021-10-19 21:03:00,,0821.9,4.99,0.00,30.0,29.3,00.0,39.1,31.7,12.2,0000.0,0010.01,0002.80,0001.54
2021-10-19 21:04:00,,0822.0,5.00,0.00,29.9,29.3,00.0,39.1,31.6,12.2,0000.0,0009.80,0002.89,0001.55
2021-10-19 21:05:00,,0822.0,5.00,0.00,29.9,29.3,00.0,39.1,31.7,12.1,0000.0,0010.08,0002.95,0001.55
2021-10-19 21:06:00,,0822.1,5.00,0.00,29.9,29.2,00.0,39.1,31.7,12.0,0000.0,0010.47,0002.99,0001.55
2021-10-19 21:07:00,,0822.2,5.00,0.00,29.9,29.2,00.0,39.1,31.7,12.0,0000.0,0010.59,0003.01,0001.55
2021-10-19 21:08:00,,0822.1,5.00,0.00,29.9,29.2,00.0,39.1,31.7,11.8,0000.0,0010.71,0003.01,0001.53
2021-10-19 21:09:00,,0822.1,5.01,0.00,29.9,29.2,00.0,39.1,31.7,12.6,0000.0,0011.16,0003.03,0001.48
2021-10-19 21:10:00,,0822.1,5.00,0.00,29.9,29.2,00.0,39.1,31.7,13.0,0000.0,0011.34,0002.96,0001.42
2021-10-19 21:11:00,,0822.1,5.00,0.00,29.9,29.2,00.0,39.1,31.6,13.2,0000.0,0011.21,0002.84,0001.36
2021-10-19 21:12:00,,0822.1,4.99,0.00,29.9,29.2,00.0,39.1,31.6,13.2,0000.0,0011.24,0002.80,0001.29
2021-10-19 21:13:00,,0822.1,5.00,0.00,29.9,29.2,00.0,39.0,31.6,13.3,0000.0,0010.83,0002.78,0001.23
2021-10-19 21:14:00,,0822.1,4.99,0.00,29.9,29.2,00.0,39.0,31.6,13.3,0000.0,0010.06,0002.75,0001.17
2021-10-19 21:15:00,,0822.2,5.00,0.00,29.9,29.2,00.0,39.1,31.6,13.5,0000.0,0010.09,0002.68,0001.10
2021-10-19 21:16:00,,0822.2,5.00,0.00,29.9,29.2,00.0,39.0,31.6,13.7,0000.0,0009.72,0002.54,0001.04
2021-10-19 21:17:00,,0822.3,5.00,0.00,29.9,29.2,00.0,39.0,31.6,13.8,0000.0,0009.99,0002.46,0000.96
2021-10-19 21:18:00,,0822.3,4.99,0.00,29.9,29.1,00.0,39.0,31.6,13.8,0000.0,0010.11,0002.41,0000.88
2021-10-19 21:19:00,,0822.3,5.01,0.00,29.9,29.1,00.0,39.0,31.6,13.8,0000.0,0010.06,0002.41,0000.82
2021-10-19 21:20:00,,0822.3,5.00,0.00,29.9,29.2,00.0,39.0,31.6,13.9,0000.0,0009.78,0002.43,0000.78
2021-10-19 21:21:00,,0822.3,4.99,0.00,29.9,29.1,00.0,39.0,31.6,14.0,0000.0,0009.81,0002.43,0000.75
2021-10-19 21:22:00,,0822.3,5.00,0.00,29.9,29.1,00.0,39.0,31.6,14.2,0000.0,0010.63,0002.43,0000.73
2021-10-19 21:23:00,,0822.2,5.00,0.00,29.9,29.1,00.0,39.0,31.5,14.3,0000.0,0010.42,0002.45,0000.72
2021-10-19 21:24:00,,0822.3,5.00,0.00,29.8,29.1,00.0,39.0,31.5,14.3,0000.0,0010.44,0002.52,0000.70
2021-10-19 21:25:00,,0822.4,5.00,0.00,29.8,29.1,00.0,39.0,31.5,14.3,0000.0,0010.72,0002.43,0000.67
2021-10-19 21:26:00,,0822.4,4.99,0.00,29.8,29.1,00.0,39.0,31.5,14.3,0000.0,0010.98,0002.37,0000.64
2021-10-19 21:27:00,,0822.4,5.01,0.00,29.8,29.1,00.0,39.0,31.5,14.3,0000.0,0011.52,0002.42,0000.61
2021-10-19 21:28:00,,0822.4,5.00,0.00,29.8,29.1,00.0,39.0,31.5,14.3,0000.0,0011.65,0002.44,0000.59
2021-10-19 21:29:00,,0822.4,5.00,0.00,29.8,29.1,00.0,39.0,31.5,14.3,0000.0,0012.62,0002.42,0000.58
2021-10-19 21:30:00,,0822.4,5.01,0.00,29.8,29.1,00.0,39.0,31.5,14.4,0000.0,0012.97,0002.39,0000.58
2021-10-19 21:31:00,,0822.4,5.00,0.00,29.8,29.1,00.0,39.0,31.5,14.4,0000.0,0012.91,0002.37,0000.56
2021-10-19 21:32:00,,0822.4,5.01,0.00,29.8,29.1,00.0,39.0,31.5,14.4,0000.0,0012.98,0002.47,0000.55
2021-10-19 21:33:00,,0822.4,5.02,0.00,29.8,29.1,00.0,39.0,31.5,14.4,0000.0,0013.21,0002.61,0000.54
2021-10-19 21:34:00,,0822.4,4.98,0.00,29.8,29.1,00.0,39.0,31.5,14.5,0000.0,0013.40,0002.60,0000.53
2021-10-19 21:35:00,,0822.5,5.01,0.00,29.8,29.1,00.0,39.0,31.5,14.6,0000.0,0013.56,0002.65,0000.52
2021-10-19 21:36:00,,0822.6,4.99,0.00,29.8,29.1,00.0,39.0,31.4,14.5,0000.0,0014.22,0002.75,0000.52
2021-10-19 21:37:00,,0822.6,5.01,0.00,29.8,29.0,00.0,38.9,31.4,14.5,0000.0,0015.20,0002.76,0000.51
2021-10-19 21:38:00,,0822.6,4.99,0.00,29.8,29.0,00.0,38.9,31.4,14.4,0000.0,0015.59,0002.79,0000.50
2021-10-19 21:39:00,,0822.7,5.00,0.00,29.7,29.0,00.0,38.9,31.4,14.4,0000.0,0015.99,0002.83,0000.49
2021-10-19 21:40:00,,0822.7,5.01,0.00,29.7,29.0,00.0,38.9,31.4,14.4,0000.0,0015.21,0002.80,0000.49
2021-10-19 21:41:00,,0822.7,5.00,0.00,29.7,29.0,00.0,38.9,31.4,14.4,0000.0,0016.31,0002.75,0000.48
2021-10-19 21:42:00,,0822.7,5.00,0.00,29.7,29.0,00.0,38.9,31.4,14.5,0000.0,0017.24,0002.73,0000.48
2021-10-19 21:43:00,,0822.8,5.00,0.00,29.7,29.0,00.0,38.9,31.4,14.4,0000.0,0017.49,0002.60,0000.48
2021-10-19 21:44:00,,0822.8,5.00,0.00,29.7,29.0,00.0,38.9,31.4,14.3,0000.0,0016.82,0002.49,0000.46
2021-10-19 21:45:00,,0822.8,5.01,0.00,29.7,29.0,00.0,38.9,31.4,14.2,0000.0,0017.08,0002.44,0000.45
2021-10-19 21:46:00,,0822.8,4.99,0.00,29.7,29.0,00.0,38.9,31.3,14.2,0000.0,0017.52,0002.32,0000.44
2021-10-19 21:47:00,,0822.8,4.99,0.00,29.7,29.0,00.0,38.9,31.4,14.3,0000.0,0016.51,0002.28,0000.44
2021-10-19 21:48:00,,0822.8,5.00,0.00,29.7,29.0,00.0,38.9,31.4,14.3,0000.0,0014.82,0002.29,0000.43
2021-10-19 21:49:00,,0822.8,5.01,0.00,29.7,29.0,00.0,38.9,31.4,14.3,0000.0,0013.85,0002.25,0000.44
2021-10-19 21:50:00,,0822.8,5.02,0.00,29.7,29.0,00.0,38.9,31.4,14.2,0000.0,0013.28,0002.20,0000.44
2021-10-19 21:51:00,,0822.9,5.00,0.00,29.7,29.0,00.0,38.9,31.4,14.1,0000.0,0014.02,0002.28,0000.44
2021-10-19 21:52:00,,0822.9,4.99,0.00,29.7,29.0,00.0,38.9,31.4,14.1,0000.0,0013.52,0002.32,0000.44
2021-10-19 21:53:00,,0822.9,4.98,0.00,29.7,29.0,00.0,38.8,31.4,14.1,0000.0,0012.70,0002.36,0000.45
2021-10-19 21:54:00,,0823.0,5.01,0.00,29.7,29.0,00.0,38.8,31.3,14.1,0000.0,0013.26,0002.41,0000.45
2021-10-19 21:55:00,,0822.9,5.01,0.00,29.6,28.9,00.0,38.8,31.3,14.1,0000.0,0013.91,0002.35,0000.45
2021-10-19 21:56:00,,0823.0,4.99,0.00,29.6,28.9,00.0,38.8,31.3,14.1,0000.0,0013.45,0002.35,0000.45
2021-10-19 21:57:00,,0823.0,5.00,0.00,29.6,28.9,00.0,38.8,31.3,14.1,0000.0,0012.90,0002.34,0000.46
2021-10-19 21:58:00,,0823.1,5.00,0.00,29.6,28.9,00.0,38.8,31.3,14.0,0000.0,0013.87,0002.36,0000.47
2021-10-19 21:59:00,,0823.1,5.00,0.00,29.6,28.9,00.0,38.8,31.3,14.1,0000.0,0014.33,0002.41,0000.47
